Location: B?dimalle
(17.1788°N, 80.5377°E)
Time: 23:13:03
(UTC+00:00)

S-56A Canister/Altair - All Passes

Search period start: 16 February 2026 00:00
Search period end: 26 February 2026 00:00
Orbit: 632 x 2485 km, 38.9° (Epoch: 16 February)

Date Brightness Start Highest point End Pass type
(mag) Time Alt. Az. Time Alt. Az. Time Alt. Az.
16 Feb - 00:07:10 10° NW 00:18:32 59° NE 00:33:10 10° ESE visible
16 Feb - 02:12:06 10° WNW 02:25:08 59° SW 02:39:45 10° SSE daylight
16 Feb - 04:23:00 10° W 04:31:26 17° SW 04:39:46 10° S daylight
16 Feb - 15:14:13 10° SSW 15:18:11 32° SE 15:22:39 10° ENE visible
16 Feb - 17:17:28 10° W 17:21:49 32° NNW 17:27:28 10° NE night (unlit)
16 Feb - 19:24:15 10° NW 19:28:03 15° N 19:32:37 10° NNE night (unlit)
16 Feb - 21:29:02 10° NNW 21:35:42 22° NNE 21:44:17 10° ENE visible
16 Feb - 23:32:15 10° NW 23:42:47 52° NNE 23:56:48 10° ESE visible
17 Feb - 01:36:39 10° WNW 01:49:18 67° SW 02:04:16 10° SE daylight
17 Feb - 03:45:52 10° W 03:55:41 22° SW 04:05:41 10° S daylight
17 Feb - 14:39:58 10° S 14:43:31 23° SE 14:47:15 10° E visible
17 Feb - 16:42:35 10° W 16:46:53 37° NNW 16:52:18 10° NE night (unlit)
17 Feb - 18:49:21 10° NW 18:52:40 14° N 18:56:36 10° NNE night (unlit)
17 Feb - 20:54:27 10° NNW 21:00:06 19° NNE 21:07:15 10° ENE visible
17 Feb - 22:57:25 10° NW 23:07:06 45° NNE 23:20:16 10° E visible
18 Feb - 01:01:21 10° WNW 01:13:29 75° SW 01:28:35 10° SE daylight
18 Feb - 03:09:15 10° W 03:19:55 26° SW 03:31:10 10° S daylight
18 Feb - 14:05:55 10° S 14:08:50 17° SE 14:11:44 10° E visible
18 Feb - 16:07:44 10° WSW 16:12:02 46° NNW 16:17:13 10° NE night (unlit)
18 Feb - 18:14:23 10° NW 18:17:22 14° N 18:20:52 10° NNE night (unlit)
18 Feb - 20:19:57 10° NNW 20:24:34 16° NNE 20:30:15 10° NE visible
18 Feb - 22:22:42 10° NW 22:31:29 39° NNE 22:43:37 10° E visible
19 Feb - 00:26:12 10° NW 00:37:43 84° SW 00:52:46 10° SE visible
19 Feb - 02:33:02 10° W 02:44:08 31° SW 02:56:22 10° SSE daylight
19 Feb - 13:32:15 10° SSE 13:34:03 12° SE 13:35:51 10° ESE visible
19 Feb - 15:32:55 10° WSW 15:37:16 60° NW 15:42:14 10° NE visible
19 Feb - 17:39:20 10° NW 17:42:10 14° NNW 17:45:25 10° NNE night (unlit)
19 Feb - 19:45:33 10° NNW 19:49:05 14° NNE 19:53:16 10° NE visible
19 Feb - 21:48:04 10° NNW 21:55:58 33° NNE 22:06:50 10° E visible
19 Feb - 23:51:11 10° NW 00:02:01 86° NE 00:16:48 10° SE visible
20 Feb - 01:57:08 10° WNW 02:08:21 35° SW 02:21:18 10° SSE daylight
20 Feb - 14:58:06 10° SW 15:02:33 81° NW 15:07:18 10° NE visible
20 Feb - 17:04:12 10° NW 17:07:01 15° NNW 17:10:14 10° NNE night (unlit)
20 Feb - 19:11:20 10° NNW 19:13:41 12° N 19:16:18 10° NNE night (unlit)
20 Feb - 21:13:31 10° NNW 21:20:30 28° NNE 21:29:59 10° E visible
20 Feb - 23:16:17 10° NW 23:26:23 77° NE 23:40:41 10° ESE visible
21 Feb - 01:21:28 10° WNW 01:32:35 41° SW 01:46:03 10° SSE daylight
21 Feb - 14:23:19 10° SW 14:27:52 75° SE 14:32:25 10° ENE visible
21 Feb - 16:29:00 10° WNW 16:31:57 16° NNW 16:35:16 10° NNE night (unlit)
21 Feb - 18:38:07 10° N 18:38:19 10° N 18:38:31 10° N night (unlit)
21 Feb - 20:39:04 10° NNW 20:45:06 23° NNE 20:53:04 10° ENE visible
21 Feb - 22:41:29 10° NW 22:50:51 67° NE 23:04:27 10° ESE visible
22 Feb - 00:46:02 10° WNW 00:56:50 47° SW 01:10:38 10° SSE daylight
22 Feb - 02:58:51 10° WSW 03:03:40 12° SW 03:08:40 10° SSW daylight
22 Feb - 13:48:33 10° SW 13:53:11 54° SE 13:57:31 10° ENE visible
22 Feb - 15:53:46 10° WNW 15:56:57 19° NNW 16:00:27 10° NNE visible
22 Feb - 20:04:44 10° NNW 20:09:45 19° NNE 20:16:07 10° ENE visible
22 Feb - 22:06:47 10° NW 22:15:24 57° NE 22:28:06 10° ESE visible
23 Feb - 00:10:46 10° WNW 00:21:09 53° SW 00:35:03 10° SSE visible
23 Feb - 02:21:01 10° WSW 02:27:51 15° SW 02:35:14 10° S daylight
23 Feb - 13:13:48 10° SSW 13:18:29 39° SE 13:22:37 10° ENE visible
23 Feb - 15:18:30 10° W 15:22:02 23° NNW 15:25:45 10° NNE visible
23 Feb - 19:30:33 10° NNW 19:34:25 15° NNE 19:39:07 10° NE visible
23 Feb - 21:32:10 10° NW 21:40:03 48° NE 21:51:40 10° ESE visible
23 Feb - 23:35:39 10° WNW 23:45:31 60° SW 23:59:21 10° SE visible
24 Feb - 01:44:12 10° WSW 01:52:03 19° SW 02:00:56 10° S daylight
24 Feb - 12:39:04 10° SSW 12:43:44 30° SE 12:47:42 10° E daylight
24 Feb - 14:43:16 10° W 14:47:12 28° NNW 14:51:08 10° NNE visible
24 Feb - 18:56:40 10° N 18:59:08 12° NNE 19:01:56 10° NE night (unlit)
24 Feb - 20:57:39 10° NW 21:04:46 40° NE 21:15:09 10° E visible
24 Feb - 23:00:40 10° WNW 23:09:58 69° SW 23:23:31 10° SE visible
25 Feb - 01:07:55 10° W 01:16:19 22° SW 01:26:13 10° S daylight
25 Feb - 12:04:21 10° SSW 12:08:55 24° SE 12:12:43 10° E daylight
25 Feb - 14:08:01 10° WSW 14:12:25 37° NW 14:16:32 10° NE visible
25 Feb - 20:23:12 10° NNW 20:29:34 33° NNE 20:38:35 10° E visible
25 Feb - 22:25:49 10° WNW 22:34:30 78° SW 22:47:35 10° SE visible
